Location: Peebles
(55.6412°N, 3.1714°W)
Time: 11:35:01
(UTC+00:00)

CUTE-I - Pass Details

Date: 12 December 2023
Orbit: 807 x 823 km, 98.7° (Epoch: 24 February)

Event Time Altitude Azimuth Distance (km) Brightness Sun altitude
Rises 17:26:19 0° 166° (SSE) 3,323 ? -13.5°
Reaches altitude 10° 17:28:39 10° 168° (SSE) 2,398 ? -13.8°
Maximum altitude 17:33:58 76° 254° (WSW) 846 ? -14.5°
Drops below altitude 10° 17:39:21 10° 341° (NNW) 2,426 ? -15.2°
Sets 17:41:43 0° 343° (NNW) 3,365 ? -15.5°
